#Datum;Uhrzeit;WR;Pac;DaySum;Status;WR;Pac;DaySum;Status;Pdc1;Udc;Temp;WR;Pac;DaySum;Status;Pdc1;Udc;Temp;WR;Pac;DaySum;Status;Pdc1;Udc;Temp;WR;Pac;DaySum;Status;Pdc1;Pdc2;Udc1;Udc2;Temp;WR;Pac;DaySum;Status;Pdc1;Pdc2;Udc1;Udc2;Temp;WR;Pac;DaySum;Status;Pdc1;Udc;Temp;WR;Pac;DaySum;Status;Pdc1;Udc;Temp;WR;Pac;DaySum;Status;Pdc1;Udc;Temp
22.11.20;23:55:00;1;266;14228;0;2;0;13720;0;0;0;0;3;0;9024;0;0;0;0;4;0;8581;0;0;0;0;5;0;0;0;0;0;0;0;0;6;0;24703;0;0;0;0;0;0;7;0;23661;0;0;0;0;8;0;23123;0;0;0;0;9;0;12275;0;0;0;0
22.11.20;23:50:00;1;280;14206;0;2;0;13720;0;0;0;0;3;0;9024;0;0;0;0;4;0;8581;0;0;0;0;5;0;0;0;0;0;0;0;0;6;0;24703;0;0;0;0;0;0;7;0;23661;0;0;0;0;8;0;23123;0;0;0;0;9;0;12275;0;0;0;0
22.11.20;23:45:00;1;359;14183;0;2;0;13720;0;0;0;0;3;0;9024;0;0;0;0;4;0;8581;0;0;0;0;5;0;0;0;0;0;0;0;0;6;0;24703;0;0;0;0;0;0;7;0;23661;0;0;0;0;8;0;23123;0;0;0;0;9;0;12275;0;0;0;0
22.11.20;23:40:00;1;376;14153;0;2;0;13720;0;0;0;0;3;0;9024;0;0;0;0;4;0;8581;0;0;0;0;5;0;0;0;0;0;0;0;0;6;0;24703;0;0;0;0;0;0;7;0;23661;0;0;0;0;8;0;23123;0;0;0;0;9;0;12275;0;0;0;0
22.11.20;23:35:00;1;385;14121;0;2;0;13720;0;0;0;0;3;0;9024;0;0;0;0;4;0;8581;0;0;0;0;5;0;0;0;0;0;0;0;0;6;0;24703;0;0;0;0;0;0;7;0;23661;0;0;0;0;8;0;23123;0;0;0;0;9;0;12275;0;0;0;0
22.11.20;23:30:00;1;562;14089;0;2;0;13720;0;0;0;0;3;0;9024;0;0;0;0;4;0;8581;0;0;0;0;5;0;0;0;0;0;0;0;0;6;0;24703;0;0;0;0;0;0;7;0;23661;0;0;0;0;8;0;23123;0;0;0;0;9;0;12275;0;0;0;0
22.11.20;23:25:00;1;567;14042;0;2;0;13720;0;0;0;0;3;0;9024;0;0;0;0;4;0;8581;0;0;0;0;5;0;0;0;0;0;0;0;0;6;0;24703;0;0;0;0;0;0;7;0;23661;0;0;0;0;8;0;23123;0;0;0;0;9;0;12275;0;0;0;0
22.11.20;23:20:00;1;570;13994;0;2;0;13720;0;0;0;0;3;0;9024;0;0;0;0;4;0;8581;0;0;0;0;5;0;0;0;0;0;0;0;0;6;0;24703;0;0;0;0;0;0;7;0;23661;0;0;0;0;8;0;23123;0;0;0;0;9;0;12275;0;0;0;0
22.11.20;23:15:00;1;628;13947;0;2;0;13720;0;0;0;0;3;0;9024;0;0;0;0;4;0;8581;0;0;0;0;5;0;0;0;0;0;0;0;0;6;0;24703;0;0;0;0;0;0;7;0;23661;0;0;0;0;8;0;23123;0;0;0;0;9;0;12275;0;0;0;0
22.11.20;23:10:00;1;584;13894;0;2;0;13720;0;0;0;0;3;0;9024;0;0;0;0;4;0;8581;0;0;0;0;5;0;0;0;0;0;0;0;0;6;0;24703;0;0;0;0;0;0;7;0;23661;0;0;0;0;8;0;23123;0;0;0;0;9;0;12275;0;0;0;0
22.11.20;23:07:00;1;614;13864;0;2;0;13720;0;0;0;0;3;0;9024;0;0;0;0;4;0;8581;0;0;0;0;5;0;0;0;0;0;0;0;0;6;0;24703;0;0;0;0;0;0;7;0;23661;0;0;0;0;8;0;23123;0;0;0;0;9;0;12275;0;0;0;0
22.11.20;23:00:00;1;677;13798;0;2;0;13720;0;0;0;0;3;0;9024;0;0;0;0;4;0;8581;0;0;0;0;5;0;0;0;0;0;0;0;0;6;0;24703;0;0;0;0;0;0;7;0;23661;0;0;0;0;8;0;23123;0;0;0;0;9;0;12275;0;0;0;0
22.11.20;22:55:00;1;714;13742;0;2;0;13720;0;0;0;0;3;0;9024;0;0;0;0;4;0;8581;0;0;0;0;5;0;0;0;0;0;0;0;0;6;0;24703;2;0;0;0;0;0;7;0;23661;0;0;0;0;8;0;23123;0;0;0;0;9;0;12275;0;0;0;0
22.11.20;22:50:00;1;721;13682;0;2;0;13720;0;0;0;0;3;0;9024;0;0;0;0;4;0;8581;0;0;0;0;5;0;0;0;0;0;0;0;0;6;0;24703;2;0;0;0;0;0;7;0;23661;0;0;0;0;8;0;23123;0;0;0;0;9;0;12275;0;0;0;0
22.11.20;22:45:00;1;691;13623;0;2;0;13720;0;0;0;0;3;0;9024;0;0;0;0;4;0;8581;0;0;0;0;5;0;0;0;0;0;0;0;0;6;0;24703;2;0;0;0;0;0;7;0;23661;0;0;0;0;8;0;23123;0;0;0;0;9;0;12275;0;0;0;0
22.11.20;22:40:00;1;660;13566;0;2;0;13720;0;0;0;0;3;0;9024;0;0;0;0;4;0;8581;0;0;0;0;5;0;0;0;0;0;0;0;0;6;0;24703;2;0;0;0;0;0;7;0;23661;0;0;0;0;8;0;23123;0;0;0;0;9;0;12275;0;0;0;0
22.11.20;22:35:00;1;662;13510;0;2;0;13720;0;0;0;0;3;0;9024;0;0;0;0;4;0;8581;0;0;0;0;5;0;0;0;0;0;0;0;0;6;0;24703;2;0;0;0;0;0;7;0;23661;0;0;0;0;8;0;23123;0;0;0;0;9;0;12275;0;0;0;0
22.11.20;22:30:00;1;660;13455;0;2;0;13720;0;0;0;0;3;0;9024;0;0;0;0;4;0;8581;0;0;0;0;5;0;0;0;0;0;0;0;0;6;0;24703;2;0;0;0;0;0;7;0;23661;0;0;0;0;8;0;23123;0;0;0;0;9;0;12275;0;0;0;0
22.11.20;22:25:00;1;601;13401;0;2;0;13720;0;0;0;0;3;0;9024;0;0;0;0;4;0;8581;0;0;0;0;5;0;0;0;0;0;0;0;0;6;0;24703;2;0;0;0;0;0;7;0;23661;0;0;0;0;8;0;23123;0;0;0;0;9;0;12275;0;0;0;0
22.11.20;22:20:00;1;595;13349;0;2;0;13720;0;0;0;0;3;0;9024;0;0;0;0;4;0;8581;0;0;0;0;5;0;0;0;0;0;0;0;0;6;0;24703;2;0;0;0;0;0;7;0;23661;0;0;0;0;8;0;23123;0;0;0;0;9;0;12275;0;0;0;0
22.11.20;22:15:00;1;632;13300;0;2;0;13720;0;0;0;0;3;0;9024;0;0;0;0;4;0;8581;0;0;0;0;5;0;0;0;0;0;0;0;0;6;0;24703;2;0;0;0;0;0;7;0;23661;0;0;0;0;8;0;23123;0;0;0;0;9;0;12275;0;0;0;0
22.11.20;22:10:00;1;584;13246;0;2;0;13720;0;0;0;0;3;0;9024;0;0;0;0;4;0;8581;0;0;0;0;5;0;0;0;0;0;0;0;0;6;0;24703;2;0;0;0;0;0;7;0;23661;0;0;0;0;8;0;23123;0;0;0;0;9;0;12275;0;0;0;0
22.11.20;22:05:00;1;655;13196;0;2;0;13720;0;0;0;0;3;0;9024;0;0;0;0;4;0;8581;0;0;0;0;5;0;0;0;0;0;0;0;0;6;0;24703;2;0;0;0;0;0;7;0;23661;0;0;0;0;8;0;23123;0;0;0;0;9;0;12275;0;0;0;0
22.11.20;22:00:00;1;625;13142;0;2;0;13720;0;0;0;0;3;0;9024;0;0;0;0;4;0;8581;0;0;0;0;5;0;0;0;0;0;0;0;0;6;0;24703;2;0;0;0;0;0;7;0;23661;0;0;0;0;8;0;23123;0;0;0;0;9;0;12275;0;0;0;0
22.11.20;21:55:00;1;640;13090;0;2;0;13720;0;0;0;0;3;0;9024;0;0;0;0;4;0;8581;0;0;0;0;5;0;0;0;0;0;0;0;0;6;0;24703;2;0;0;0;0;0;7;0;23661;0;0;0;0;8;0;23123;0;0;0;0;9;0;12275;0;0;0;0
22.11.20;21:50:00;1;688;13036;0;2;0;13720;0;0;0;0;3;0;9024;0;0;0;0;4;0;8581;0;0;0;0;5;0;0;0;0;0;0;0;0;6;0;24703;2;0;0;0;0;0;7;0;23661;0;0;0;0;8;0;23123;0;0;0;0;9;0;12275;0;0;0;0
22.11.20;21:45:00;1;778;12978;0;2;0;13720;0;0;0;0;3;0;9024;0;0;0;0;4;0;8581;0;0;0;0;5;0;0;0;0;0;0;0;0;6;0;24703;2;0;0;0;0;0;7;0;23661;0;0;0;0;8;0;23123;0;0;0;0;9;0;12275;0;0;0;0
22.11.20;21:40:00;1;719;12914;0;2;0;13720;0;0;0;0;3;0;9024;0;0;0;0;4;0;8581;0;0;0;0;5;0;0;0;0;0;0;0;0;6;0;24703;2;0;0;0;0;0;7;0;23661;0;0;0;0;8;0;23123;0;0;0;0;9;0;12275;0;0;0;0
22.11.20;21:35:00;1;778;12853;0;2;0;13720;0;0;0;0;3;0;9024;0;0;0;0;4;0;8581;0;0;0;0;5;0;0;0;0;0;0;0;0;6;0;24703;2;0;0;0;0;0;7;0;23661;0;0;0;0;8;0;23123;0;0;0;0;9;0;12275;0;0;0;0
22.11.20;21:30:00;1;1006;12788;0;2;0;13720;0;0;0;0;3;0;9024;0;0;0;0;4;0;8581;0;0;0;0;5;0;0;0;0;0;0;0;0;6;0;24703;2;0;0;0;0;0;7;0;23661;0;0;0;0;8;0;23123;0;0;0;0;9;0;12275;0;0;0;0
22.11.20;21:25:00;1;640;12701;0;2;0;13720;0;0;0;0;3;0;9024;0;0;0;0;4;0;8581;0;0;0;0;5;0;0;0;0;0;0;0;0;6;0;24703;2;0;0;0;0;0;7;0;23661;0;0;0;0;8;0;23123;0;0;0;0;9;0;12275;0;0;0;0
22.11.20;21:20:00;1;664;12647;0;2;0;13720;0;0;0;0;3;0;9024;0;0;0;0;4;0;8581;0;0;0;0;5;0;0;0;0;0;0;0;0;6;0;24703;2;0;0;0;0;0;7;0;23661;0;0;0;0;8;0;23123;0;0;0;0;9;0;12275;0;0;0;0
22.11.20;21:15:00;1;722;12590;0;2;0;13720;0;0;0;0;3;0;9024;0;0;0;0;4;0;8581;0;0;0;0;5;0;0;0;0;0;0;0;0;6;0;24703;2;0;0;0;0;0;7;0;23661;0;0;0;0;8;0;23123;0;0;0;0;9;0;12275;0;0;0;0
22.11.20;21:10:00;1;659;12529;0;2;0;13720;0;0;0;0;3;0;9024;0;0;0;0;4;0;8581;0;0;0;0;5;0;0;0;0;0;0;0;0;6;0;24703;2;0;0;0;0;0;7;0;23661;0;0;0;0;8;0;23123;0;0;0;0;9;0;12275;0;0;0;0
22.11.20;21:05:00;1;693;12474;0;2;0;13720;0;0;0;0;3;0;9024;0;0;0;0;4;0;8581;0;0;0;0;5;0;0;0;0;0;0;0;0;6;0;24703;2;0;0;0;0;0;7;0;23661;0;0;0;0;8;0;23123;0;0;0;0;9;0;12275;0;0;0;0
22.11.20;21:00:00;1;691;12416;0;2;0;13720;0;0;0;0;3;0;9024;0;0;0;0;4;0;8581;0;0;0;0;5;0;0;0;0;0;0;0;0;6;0;24703;2;0;0;0;0;0;7;0;23661;0;0;0;0;8;0;23123;0;0;0;0;9;0;12275;0;0;0;0
22.11.20;20:55:00;1;715;12358;0;2;0;13720;0;0;0;0;3;0;9024;0;0;0;0;4;0;8581;0;0;0;0;5;0;0;0;0;0;0;0;0;6;0;24703;2;0;0;0;0;0;7;0;23661;0;0;0;0;8;0;23123;0;0;0;0;9;0;12275;0;0;0;0
22.11.20;20:50:00;1;691;12299;0;2;0;13720;0;0;0;0;3;0;9024;0;0;0;0;4;0;8581;0;0;0;0;5;0;0;0;0;0;0;0;0;6;0;24703;2;0;0;0;0;0;7;0;23661;0;0;0;0;8;0;23123;0;0;0;0;9;0;12275;0;0;0;0
22.11.20;20:45:00;1;696;12241;0;2;0;13720;0;0;0;0;3;0;9024;0;0;0;0;4;0;8581;0;0;0;0;5;0;0;0;0;0;0;0;0;6;0;24703;2;0;0;0;0;0;7;0;23661;0;0;0;0;8;0;23123;0;0;0;0;9;0;12275;0;0;0;0
22.11.20;20:40:00;1;694;12184;0;2;0;13720;0;0;0;0;3;0;9024;0;0;0;0;4;0;8581;0;0;0;0;5;0;0;0;0;0;0;0;0;6;0;24703;2;0;0;0;0;0;7;0;23661;0;0;0;0;8;0;23123;0;0;0;0;9;0;12275;0;0;0;0
22.11.20;20:35:00;1;712;12126;0;2;0;13720;0;0;0;0;3;0;9024;0;0;0;0;4;0;8581;0;0;0;0;5;0;0;0;0;0;0;0;0;6;0;24703;2;0;0;0;0;0;7;0;23661;0;0;0;0;8;0;23123;0;0;0;0;9;0;12275;0;0;0;0
22.11.20;20:30:00;1;684;12066;0;2;0;13720;0;0;0;0;3;0;9024;0;0;0;0;4;0;8581;0;0;0;0;5;0;0;0;0;0;0;0;0;6;0;24703;2;0;0;0;0;0;7;0;23661;0;0;0;0;8;0;23123;0;0;0;0;9;0;12275;0;0;0;0
22.11.20;20:25:00;1;676;12009;0;2;0;13720;0;0;0;0;3;0;9024;0;0;0;0;4;0;8581;0;0;0;0;5;0;0;0;0;0;0;0;0;6;0;24703;2;0;0;0;0;0;7;0;23661;0;0;0;0;8;0;23123;0;0;0;0;9;0;12275;0;0;0;0
22.11.20;20:20:00;1;672;11952;0;2;0;13720;0;0;0;0;3;0;9024;0;0;0;0;4;0;8581;0;0;0;0;5;0;0;0;0;0;0;0;0;6;0;24703;2;0;0;0;0;0;7;0;23661;0;0;0;0;8;0;23123;0;0;0;0;9;0;12275;0;0;0;0
22.11.20;20:15:00;1;837;11895;0;2;0;13720;0;0;0;0;3;0;9024;0;0;0;0;4;0;8581;0;0;0;0;5;0;0;0;0;0;0;0;0;6;0;24703;2;0;0;0;0;0;7;0;23661;0;0;0;0;8;0;23123;0;0;0;0;9;0;12275;0;0;0;0
22.11.20;20:10:00;1;808;11824;0;2;0;13720;0;0;0;0;3;0;9024;0;0;0;0;4;0;8581;0;0;0;0;5;0;0;0;0;0;0;0;0;6;0;24703;2;0;0;0;0;0;7;0;23661;0;0;0;0;8;0;23123;0;0;0;0;9;0;12275;0;0;0;0
22.11.20;20:05:00;1;774;11757;0;2;0;13720;0;0;0;0;3;0;9024;0;0;0;0;4;0;8581;0;0;0;0;5;0;0;0;0;0;0;0;0;6;0;24703;2;0;0;0;0;0;7;0;23661;0;0;0;0;8;0;23123;0;0;0;0;9;0;12275;0;0;0;0
22.11.20;20:00:00;1;772;11690;0;2;0;13720;0;0;0;0;3;0;9024;0;0;0;0;4;0;8581;0;0;0;0;5;0;0;0;0;0;0;0;0;6;0;24703;2;0;0;0;0;0;7;0;23661;0;0;0;0;8;0;23123;0;0;0;0;9;0;12275;0;0;0;0
22.11.20;19:55:00;1;777;11626;0;2;0;13720;0;0;0;0;3;0;9024;0;0;0;0;4;0;8581;0;0;0;0;5;0;0;0;0;0;0;0;0;6;0;24703;2;0;0;0;0;0;7;0;23661;0;0;0;0;8;0;23123;0;0;0;0;9;0;12275;0;0;0;0
22.11.20;19:50:00;1;771;11560;0;2;0;13720;0;0;0;0;3;0;9024;0;0;0;0;4;0;8581;0;0;0;0;5;0;0;0;0;0;0;0;0;6;0;24703;2;0;0;0;0;0;7;0;23661;0;0;0;0;8;0;23123;0;0;0;0;9;0;12275;0;0;0;0
22.11.20;19:45:00;1;866;11496;0;2;0;13720;0;0;0;0;3;0;9024;0;0;0;0;4;0;8581;0;0;0;0;5;0;0;0;0;0;0;0;0;6;0;24703;2;0;0;0;0;0;7;0;23661;0;0;0;0;8;0;23123;0;0;0;0;9;0;12275;0;0;0;0
22.11.20;19:40:00;1;883;11424;0;2;0;13720;0;0;0;0;3;0;9024;0;0;0;0;4;0;8581;0;0;0;0;5;0;0;0;0;0;0;0;0;6;0;24703;2;0;0;0;0;0;7;0;23661;0;0;0;0;8;0;23123;0;0;0;0;9;0;12275;0;0;0;0
22.11.20;19:35:00;1;1129;11351;0;2;0;13720;0;0;0;0;3;0;9024;0;0;0;0;4;0;8581;0;0;0;0;5;0;0;0;0;0;0;0;0;6;0;24703;2;0;0;0;0;0;7;0;23661;0;0;0;0;8;0;23123;0;0;0;0;9;0;12275;0;0;0;0
22.11.20;19:30:00;1;903;11248;0;2;0;13720;0;0;0;0;3;0;9024;0;0;0;0;4;0;8581;0;0;0;0;5;0;0;0;0;0;0;0;0;6;0;24703;2;0;0;0;0;0;7;0;23661;0;0;0;0;8;0;23123;0;0;0;0;9;0;12275;0;0;0;0
22.11.20;19:25:00;1;875;11175;0;2;0;13720;0;0;0;0;3;0;9024;0;0;0;0;4;0;8581;0;0;0;0;5;0;0;0;0;0;0;0;0;6;0;24703;2;0;0;0;0;0;7;0;23661;0;0;0;0;8;0;23123;0;0;0;0;9;0;12275;0;0;0;0
22.11.20;19:20:00;1;732;11101;0;2;0;13720;0;0;0;0;3;0;9024;0;0;0;0;4;0;8581;0;0;0;0;5;0;0;0;0;0;0;0;0;6;0;24703;2;0;0;0;0;0;7;0;23661;0;0;0;0;8;0;23123;0;0;0;0;9;0;12275;0;0;0;0
22.11.20;19:15:00;1;713;11041;0;2;0;13720;0;0;0;0;3;0;9024;0;0;0;0;4;0;8581;0;0;0;0;5;0;0;0;0;0;0;0;0;6;0;24703;2;0;0;0;0;0;7;0;23661;0;0;0;0;8;0;23123;0;0;0;0;9;0;12275;0;0;0;0
22.11.20;19:10:00;1;632;10979;0;2;0;13720;0;0;0;0;3;0;9024;0;0;0;0;4;0;8581;0;0;0;0;5;0;0;0;0;0;0;0;0;6;0;24703;2;0;0;0;0;0;7;0;23661;0;0;0;0;8;0;23123;0;0;0;0;9;0;12275;0;0;0;0
22.11.20;19:05:00;1;640;10927;0;2;0;13720;0;0;0;0;3;0;9024;0;0;0;0;4;0;8581;0;0;0;0;5;0;0;0;0;0;0;0;0;6;0;24703;2;0;0;0;0;0;7;0;23661;0;0;0;0;8;0;23123;0;0;0;0;9;0;12275;0;0;0;0
22.11.20;19:00:00;1;714;10874;0;2;0;13720;0;0;0;0;3;0;9024;0;0;0;0;4;0;8581;0;0;0;0;5;0;0;0;0;0;0;0;0;6;0;24703;2;0;0;0;0;0;7;0;23661;0;0;0;0;8;0;23123;0;0;0;0;9;0;12275;0;0;0;0
22.11.20;18:55:00;1;695;10815;0;2;0;13720;0;0;0;0;3;0;9024;0;0;0;0;4;0;8581;0;0;0;0;5;0;0;0;0;0;0;0;0;6;0;24703;2;0;0;0;0;0;7;0;23661;0;0;0;0;8;0;23123;0;0;0;0;9;0;12275;0;0;0;0
22.11.20;18:50:00;1;770;10756;0;2;0;13720;0;0;0;0;3;0;9024;0;0;0;0;4;0;8581;0;0;0;0;5;0;0;0;0;0;0;0;0;6;0;24703;2;0;0;0;0;0;7;0;23661;0;0;0;0;8;0;23123;0;0;0;0;9;0;12275;0;0;0;0
22.11.20;18:45:00;1;548;10693;0;2;0;13720;0;0;0;0;3;0;9024;0;0;0;0;4;0;8581;0;0;0;0;5;0;0;0;0;0;0;0;0;6;0;24703;2;0;0;0;0;0;7;0;23661;0;0;0;0;8;0;23123;0;0;0;0;9;0;12275;0;0;0;0
22.11.20;18:40:00;1;505;10646;0;2;0;13720;0;0;0;0;3;0;9024;0;0;0;0;4;0;8581;0;0;0;0;5;0;0;0;0;0;0;0;0;6;0;24703;2;0;0;0;0;0;7;0;23661;0;0;0;0;8;0;23123;0;0;0;0;9;0;12275;0;0;0;0
22.11.20;18:35:00;1;503;10604;0;2;0;13720;0;0;0;0;3;0;9024;0;0;0;0;4;0;8581;0;0;0;0;5;0;0;0;0;0;0;0;0;6;0;24703;2;0;0;0;0;0;7;0;23661;0;0;0;0;8;0;23123;0;0;0;0;9;0;12275;0;0;0;0
22.11.20;18:30:00;1;430;10563;0;2;0;13720;0;0;0;0;3;0;9024;0;0;0;0;4;0;8581;0;0;0;0;5;0;0;0;0;0;0;0;0;6;0;24703;2;0;0;0;0;0;7;0;23661;0;0;0;0;8;0;23123;0;0;0;0;9;0;12275;0;0;0;0
22.11.20;18:25:00;1;415;10526;0;2;0;13720;0;0;0;0;3;0;9024;0;0;0;0;4;0;8581;0;0;0;0;5;0;0;0;0;0;0;0;0;6;0;24703;2;0;0;0;0;0;7;0;23661;0;0;0;0;8;0;23123;0;0;0;0;9;0;12275;0;0;0;0
22.11.20;18:20:00;1;421;10491;0;2;0;13720;0;0;0;0;3;0;9024;0;0;0;0;4;0;8581;0;0;0;0;5;0;0;0;0;0;0;0;0;6;0;24703;2;0;0;0;0;0;7;0;23661;0;0;0;0;8;0;23123;0;0;0;0;9;0;12275;0;0;0;0
22.11.20;18:15:00;1;465;10455;0;2;0;13720;0;0;0;0;3;0;9024;0;0;0;0;4;0;8581;0;0;0;0;5;0;0;0;0;0;0;0;0;6;0;24703;2;0;0;0;0;0;7;0;23661;0;0;0;0;8;0;23123;0;0;0;0;9;0;12275;0;0;0;0
22.11.20;18:10:00;1;424;10416;0;2;0;13720;0;0;0;0;3;0;9024;0;0;0;0;4;0;8581;0;0;0;0;5;0;0;0;0;0;0;0;0;6;0;24703;2;0;0;0;0;0;7;0;23661;0;0;0;0;8;0;23123;0;0;0;0;9;0;12275;0;0;0;0
22.11.20;18:05:00;1;422;10381;0;2;0;13720;0;0;0;0;3;0;9024;0;0;0;0;4;0;8581;0;0;0;0;5;0;0;0;0;0;0;0;0;6;0;24703;2;0;0;0;0;0;7;0;23661;0;0;0;0;8;0;23123;0;0;0;0;9;0;12275;0;0;0;0
22.11.20;18:00:00;1;417;10346;0;2;0;13720;0;0;0;0;3;0;9024;0;0;0;0;4;0;8581;0;0;0;0;5;0;0;0;0;0;0;0;0;6;0;24703;2;0;0;0;0;0;7;0;23661;0;0;0;0;8;0;23123;0;0;0;0;9;0;12275;0;0;0;0
22.11.20;17:55:00;1;1194;10310;0;2;0;13720;0;0;0;0;3;0;9024;0;0;0;0;4;0;8581;0;0;0;0;5;0;0;0;0;0;0;0;0;6;0;24703;2;0;0;0;0;0;7;0;23661;0;0;0;0;8;0;23123;0;0;0;0;9;0;12275;0;0;0;0
22.11.20;17:50:00;1;2006;10199;0;2;0;13720;0;0;0;0;3;0;9024;0;0;0;0;4;0;8581;0;0;0;0;5;0;0;0;0;0;0;0;0;6;0;24703;2;0;0;0;0;0;7;0;23661;0;0;0;0;8;0;23123;0;0;0;0;9;0;12275;0;0;0;0
22.11.20;17:45:00;1;2447;10037;0;2;0;13720;0;0;0;0;3;0;9024;0;0;0;0;4;0;8581;0;0;0;0;5;0;0;0;0;0;0;0;0;6;0;24703;2;0;0;0;0;0;7;0;23661;0;0;0;0;8;0;23123;0;0;0;0;9;0;12275;0;0;0;0
22.11.20;17:40:00;1;1614;9819;0;2;0;13720;0;0;0;0;3;0;9024;0;0;0;0;4;0;8581;0;0;0;0;5;0;0;0;0;0;0;0;0;6;0;24703;2;0;0;0;0;0;7;0;23661;0;0;0;0;8;0;23123;0;0;0;0;9;0;12275;0;0;0;0
22.11.20;17:35:00;1;2021;9648;0;2;0;13720;0;0;0;0;3;0;9024;0;0;0;0;4;0;8581;0;0;0;0;5;0;0;0;0;0;0;0;0;6;0;24703;2;0;0;0;0;0;7;0;23661;0;0;0;0;8;0;23123;0;0;0;0;9;0;12275;0;0;0;0
22.11.20;17:30:00;1;2644;9488;0;2;0;13720;0;0;0;0;3;0;9024;0;0;0;0;4;0;8581;0;0;0;0;5;0;0;0;0;0;0;0;0;6;0;24703;2;0;0;0;0;0;7;0;23661;0;0;0;0;8;0;23123;0;0;0;0;9;0;12275;0;0;0;0
22.11.20;17:25:00;1;3002;9268;0;2;0;13720;0;0;0;0;3;0;9024;0;0;0;0;4;0;8581;0;0;0;0;5;0;0;0;0;0;0;0;0;6;0;24703;2;0;0;0;0;0;7;0;23661;0;0;0;0;8;0;23123;0;0;0;0;9;0;12275;0;0;0;0
22.11.20;17:20:00;1;1863;9045;0;2;0;13720;0;0;0;0;3;0;9024;0;0;0;0;4;0;8581;0;0;0;0;5;0;0;0;0;0;0;0;0;6;0;24703;2;0;0;0;0;0;7;0;23661;0;0;0;0;8;0;23123;0;0;0;0;9;0;12275;0;0;0;0
22.11.20;17:15:00;1;2369;8887;0;2;0;13720;0;0;0;0;3;0;9024;0;0;0;0;4;0;8581;0;0;0;0;5;0;0;0;0;0;0;0;0;6;0;24703;2;0;0;0;0;0;7;0;23661;0;0;0;0;8;0;23123;0;0;0;0;9;0;12275;0;0;0;0
22.11.20;17:10:00;1;2095;8674;0;2;0;13720;0;0;0;0;3;0;9024;0;0;0;0;4;0;8581;0;0;0;0;5;0;0;0;0;0;0;0;0;6;0;24703;2;0;0;0;0;0;7;0;23661;0;0;0;0;8;0;23123;0;0;0;0;9;0;12275;0;0;0;0
22.11.20;17:05:00;1;4045;8500;0;2;0;13720;0;0;0;0;3;0;9024;0;0;0;0;4;0;8581;0;0;0;0;5;0;0;0;0;0;0;0;0;6;0;24703;2;0;0;0;0;0;7;0;23661;0;0;0;0;8;0;23123;0;0;0;0;9;0;12275;0;0;0;0
22.11.20;17:00:00;1;1297;8199;0;2;0;13720;0;0;0;0;3;0;9024;0;0;0;0;4;0;8581;0;0;0;0;5;0;0;0;0;0;0;0;0;6;0;24703;2;0;0;0;0;0;7;0;23661;0;0;0;0;8;0;23123;0;0;0;0;9;0;12275;0;0;0;0
22.11.20;16:55:00;1;439;8059;0;2;0;13720;0;0;0;0;3;0;9024;0;0;0;0;4;0;8581;0;0;0;0;5;0;0;0;0;0;0;0;0;6;0;24703;2;0;0;0;0;0;7;0;23661;0;0;0;0;8;0;23123;0;0;0;0;9;0;12275;0;0;0;0
22.11.20;16:50:00;1;610;8023;0;2;0;13720;0;0;0;0;3;0;9024;0;0;0;0;4;0;8581;0;0;0;0;5;0;0;0;0;0;0;0;0;6;0;24703;2;0;0;0;0;0;7;0;23661;0;0;0;0;8;0;23123;0;0;0;0;9;0;12275;0;0;0;0
22.11.20;16:45:00;1;710;7978;0;2;0;13720;0;0;109;6;3;0;9024;0;0;235;14;4;0;8581;0;0;0;0;5;0;0;0;0;0;0;0;0;6;0;24703;2;0;0;0;0;0;7;0;23661;0;0;0;0;8;0;23123;0;0;0;0;9;0;12275;0;0;0;0
22.11.20;16:40:00;1;678;7919;0;2;0;13720;6;0;290;15;3;0;9024;6;0;323;17;4;0;8581;0;0;26;4;5;0;0;0;0;0;0;0;0;6;0;24703;2;0;0;0;0;0;7;0;23661;0;0;0;0;8;0;23123;0;0;0;0;9;0;12275;0;0;0;0
22.11.20;16:35:00;1;539;7862;0;2;0;13720;6;0;334;15;3;0;9024;6;0;399;17;4;0;8581;2;0;92;12;5;0;0;0;0;0;0;0;0;6;0;24703;0;4;4;244;114;17;7;0;23661;0;0;35;2;8;0;23123;0;0;35;2;9;0;12275;0;0;74;4
22.11.20;16:30:00;1;538;7815;0;2;0;13720;6;0;363;16;3;0;9024;6;1;436;18;4;0;8581;1;0;131;12;5;0;0;0;0;0;0;0;0;6;0;24703;23;0;10;526;180;24;7;0;23661;6;0;286;19;8;0;23123;6;0;287;19;9;0;12275;6;0;302;14
22.11.20;16:25:00;1;571;7769;0;2;0;13720;6;0;384;17;3;0;9024;6;2;450;18;4;0;8581;1;0;171;12;5;0;0;0;0;0;0;0;0;6;0;24703;23;0;9;572;215;24;7;0;23661;6;0;358;20;8;0;23123;6;0;360;19;9;0;12275;6;0;367;14
22.11.20;16:20:00;1;582;7722;0;2;0;13720;6;0;403;17;3;1;9024;4;2;489;18;4;0;8581;1;0;214;13;5;0;0;0;0;0;0;0;0;6;0;24703;23;10;0;182;578;25;7;0;23661;6;1;415;21;8;0;23123;4;0;427;20;9;0;12275;6;1;448;15
22.11.20;16:15:00;1;471;7673;0;2;2;13720;6;7;409;18;3;5;9023;3;16;465;19;4;0;8581;3;0;205;13;5;0;0;0;0;0;0;0;0;6;26;24703;1;13;23;501;476;26;7;4;23661;6;10;441;21;8;1;23123;3;6;463;20;9;1;12275;6;3;507;15
22.11.20;16:10:00;1;376;7633;0;2;41;13720;6;68;368;19;3;9;9023;6;20;502;19;4;11;8581;3;11;199;14;5;0;0;0;0;0;0;0;0;6;71;24700;4;26;29;392;360;27;7;19;23661;6;35;442;22;8;14;23123;6;24;462;21;9;1;12275;6;5;534;15
22.11.20;16:05:00;1;374;7602;0;2;102;13716;4;135;369;20;3;38;9022;6;64;500;20;4;39;8579;3;41;197;14;5;0;0;0;0;0;0;0;0;6;116;24694;4;63;61;393;360;27;7;91;23659;4;129;436;22;8;86;23121;4;121;430;21;9;5;12275;6;9;556;16
22.11.20;16:00:00;1;277;7571;0;2;183;13708;4;223;391;21;3;98;9019;4;135;486;21;4;105;8577;3;110;217;14;5;0;0;0;0;0;0;0;0;6;164;24684;4;71;72;393;360;27;7;187;23652;4;222;448;23;8;163;23115;4;198;442;22;9;64;12275;6;89;496;17
22.11.20;15:55:00;1;247;7547;0;2;589;13692;4;641;398;22;3;281;9011;4;321;440;21;4;184;8568;5;192;232;14;5;0;0;0;0;0;0;0;0;6;269;24670;4;114;161;393;500;27;7;280;23636;4;324;474;23;8;236;23101;4;282;470;22;9;104;12269;4;138;506;17
22.11.20;15:50:00;1;295;7526;0;2;465;13643;4;511;384;22;3;250;8988;4;287;416;22;4;193;8552;5;201;242;14;5;0;0;0;0;0;0;0;0;6;364;24646;4;167;231;446;558;27;7;337;23613;4;383;491;24;8;245;23081;4;288;480;23;9;96;12261;4;130;493;17
22.11.20;15:45:00;1;2373;7502;0;2;722;13605;4;781;392;23;3;386;8967;4;431;431;22;4;246;8536;5;256;200;15;5;0;0;0;0;0;0;0;0;6;573;24615;4;291;309;591;563;27;7;674;23585;4;720;483;24;8;264;23061;4;307;412;23;9;91;12253;4;122;479;18
22.11.20;15:40:00;1;2399;7303;0;2;1128;13545;4;1201;394;24;3;607;8935;4;661;449;22;4;313;8516;5;326;199;15;5;0;0;0;0;0;0;0;0;6;885;24566;4;449;459;603;575;27;7;1161;23529;4;1225;474;25;8;394;23039;4;428;367;24;9;90;12245;4;122;510;18
22.11.20;15:35:00;1;2362;7104;0;2;862;13450;4;923;384;25;3;470;8884;4;517;429;23;4;254;8489;5;265;213;15;5;0;0;0;0;0;0;0;0;6;775;24489;4;386;401;598;570;27;7;939;23431;4;1000;455;25;8;464;23005;4;506;394;25;9;83;12238;4;117;508;19
22.11.20;15:30:00;1;2337;6905;0;2;939;13377;4;1005;384;26;3;503;8844;4;550;435;23;4;255;8468;5;266;202;15;5;0;0;0;0;0;0;0;0;6;814;24427;4;409;426;594;566;28;7;823;23352;4;880;438;26;8;528;22966;4;572;365;25;9;74;12231;4;101;411;19
22.11.20;15:25:00;1;2443;6711;0;2;1471;13298;4;1557;392;27;3;795;8802;4;858;445;24;4;333;8446;5;347;203;15;5;0;0;0;0;0;0;0;0;6;1309;24355;4;660;661;601;576;28;7;1407;23283;4;1484;460;26;8;1108;22922;4;1170;410;26;9;83;12224;4;108;360;20
22.11.20;15:20:00;1;2438;6509;0;2;1682;13176;4;1777;389;28;3;912;8736;4;975;451;24;4;368;8419;5;383;202;16;5;0;0;0;0;0;0;0;0;6;1560;24244;4;790;796;604;579;28;7;1602;23166;4;1685;442;27;8;1848;22831;4;1934;403;26;9;144;12217;4;171;352;21
22.11.20;15:15:00;1;2415;6306;0;2;1807;13036;4;1906;395;28;3;987;8660;4;1052;433;25;4;411;8388;5;428;201;16;5;0;0;0;0;0;0;0;0;6;1734;24112;4;903;900;598;577;28;7;2542;23030;4;2669;480;27;8;2223;22676;4;2330;426;27;9;494;12205;4;529;351;22
22.11.20;15:10:00;1;2471;6102;0;2;1897;12886;4;2001;389;29;3;1062;8578;4;1131;439;25;4;419;8354;5;436;208;16;5;0;0;0;0;0;0;0;0;6;1887;23967;4;966;957;604;582;28;7;2776;22823;4;2908;481;28;8;2560;22492;4;2679;460;27;9;837;12166;4;885;353;23
22.11.20;15:05:00;1;1922;5895;0;2;1994;12727;4;2103;386;29;3;1128;8489;4;1198;439;25;4;453;8319;5;472;210;16;5;0;0;0;0;0;0;0;0;6;2057;23809;4;1057;1040;606;584;28;7;2919;22592;4;3066;486;28;8;2762;22279;4;2897;461;28;9;1082;12096;4;1141;371;24
22.11.20;15:00:00;1;378;5714;0;2;2079;12562;4;2173;385;30;3;1169;8396;4;1240;431;26;4;477;8282;5;497;212;17;5;0;0;0;0;0;0;0;0;6;2177;23638;4;1106;1086;604;583;28;7;3051;22349;4;3198;481;28;8;2934;22050;4;3078;469;28;9;1223;12007;4;1289;404;25
22.11.20;14:55:00;1;429;5685;0;2;2172;12389;4;2290;399;30;3;1215;8298;4;1287;431;26;4;505;8242;5;526;218;17;5;0;0;0;0;0;0;0;0;6;2325;23455;4;1190;1167;603;582;29;7;3177;22095;4;3329;483;29;8;3115;21804;4;3269;479;28;9;1398;11906;4;1479;442;26
22.11.20;14:50:00;1;413;5649;0;2;2327;12208;4;2458;417;31;3;1290;8197;4;1371;444;27;4;549;8200;5;572;220;17;5;0;0;0;0;0;0;0;0;6;2472;23261;4;1267;1246;600;576;29;7;3297;21830;4;3462;476;29;8;3248;21546;4;3401;472;29;9;1572;11789;4;1661;473;26
22.11.20;14:45:00;1;409;5613;0;2;2421;12014;4;2556;407;31;3;1424;8089;4;1510;477;27;4;580;8154;5;604;226;18;5;0;0;0;0;0;0;0;0;6;2618;23053;4;1337;1307;599;579;29;7;3424;21555;4;3593;475;29;8;3375;21275;4;3540;469;29;9;1724;11657;4;1824;494;27
22.11.20;14:40:00;1;282;5579;0;2;2498;11812;4;2635;403;32;3;1533;7971;4;1627;496;28;4;603;8106;5;628;224;18;5;0;0;0;0;0;0;0;0;6;2767;22834;4;1426;1389;599;578;29;7;3548;21270;4;3722;476;30;8;3497;20993;4;3668;469;29;9;1828;11513;4;1933;500;28
22.11.20;14:35:00;1;258;5554;0;2;2586;11604;4;2726;402;32;3;1647;7843;4;1746;508;28;4;653;8055;5;680;225;18;5;0;0;0;0;0;0;0;0;6;2932;22602;4;1509;1464;596;579;29;7;3685;20974;4;3871;471;30;8;3625;20701;4;3805;472;29;9;1974;11361;4;2093;524;28
22.11.20;14:30:00;1;260;5533;0;2;2661;11389;4;2803;404;32;3;1727;7706;4;1831;518;28;4;682;8001;5;711;221;18;5;0;0;0;0;0;0;0;0;6;3067;22357;4;1580;1534;596;578;29;7;3797;20668;4;3987;477;30;8;3737;20401;4;3918;464;30;9;2048;11198;4;2171;524;29
22.11.20;14:25:00;1;284;5511;0;2;2730;11168;4;2878;410;33;3;1776;7562;4;1882;514;28;4;741;7944;5;771;240;19;5;0;0;0;0;0;0;0;0;6;3213;22101;4;1665;1616;597;576;29;7;3912;20351;4;4101;476;30;8;3857;20089;4;4040;465;30;9;2116;11027;4;2237;519;29
22.11.20;14:20:00;1;347;5488;0;2;2788;10939;4;2938;408;33;3;1820;7414;4;1926;518;28;4;759;7883;5;790;236;19;5;0;0;0;0;0;0;0;0;6;3346;21832;4;1741;1690;598;575;29;7;4013;20025;4;4212;475;30;8;3953;19767;4;4143;464;30;9;2175;10850;4;2299;524;29
22.11.20;14:15:00;1;300;5458;0;2;2855;10707;4;3009;406;33;3;1861;7262;4;1971;521;29;4;820;7819;5;854;223;19;5;0;0;0;0;0;0;0;0;6;3489;21552;4;1814;1754;595;575;29;7;4116;19691;4;4317;477;31;8;4058;19437;4;4258;468;30;9;2205;10669;4;2332;523;29
22.11.20;14:10:00;1;388;5433;0;2;2945;10469;4;3103;405;33;3;1919;7107;4;2034;515;29;4;926;7751;5;965;225;19;5;0;0;0;0;0;0;0;0;6;3690;21260;4;1922;1858;597;574;29;7;4217;19348;4;4422;469;31;8;4153;19099;4;4360;465;30;9;2291;10485;4;2420;518;29
22.11.20;14:05:00;1;468;5401;0;2;3045;10224;4;3210;410;33;3;1992;6947;4;2108;514;29;4;996;7674;5;1037;226;20;5;0;0;0;0;0;0;0;0;6;3868;20952;4;2003;1942;597;575;29;7;4348;18996;4;4560;465;31;8;4302;18756;4;4511;465;30;9;2369;10296;4;2504;516;29
22.11.20;14:00:00;1;287;5362;0;2;2789;9971;4;2939;406;33;3;1812;6781;4;1921;518;29;4;957;7591;5;998;224;20;5;0;0;0;0;0;0;0;0;6;3526;20628;4;1819;1755;592;570;29;7;4016;18633;4;4225;465;31;8;3992;18395;4;4187;461;30;9;2201;10097;4;2329;513;29
22.11.20;13:55:00;1;293;5338;0;2;3081;9736;4;3250;412;34;3;2025;6630;4;2143;515;29;4;1042;7511;5;1086;226;20;5;0;0;0;0;0;0;0;0;6;4028;20329;4;2086;2021;592;570;29;7;4471;18297;4;4699;471;31;8;4423;18061;4;4639;460;30;9;2437;9913;4;2576;515;30